When you browse on this site, cookies collect data to enhance your experience and personalize the content and advertising you see.
Visit our Privacy Policy to learn more. By continuing to use the site, you agree to this use of cookies and data.

Previsão horária em Nekrasovo

Hoje, 11 Agosto, Terça-feira

Tempo Temperatura Precipitação Vento Pressão Humidade
00:00 +13°C° 0 mm 2 m/s 760 mmHg 77%
01:00 +13°C° 0 mm 2 m/s 760 mmHg 81%
02:00 +12°C° 0 mm 2 m/s 760 mmHg 85%
03:00 +12°C° 0 mm 2 m/s 761 mmHg 87%
04:00 +12°C° 0 mm 2 m/s 761 mmHg 90%
05:00 +12°C° 0 mm 2 m/s 761 mmHg 92%
06:00 +12°C° 0 mm 3 m/s 761 mmHg 85%
07:00 +14°C° 0 mm 3 m/s 761 mmHg 78%
08:00 +17°C° 0 mm 4 m/s 761 mmHg 70%
09:00 +18°C° 0 mm 4 m/s 761 mmHg 67%
10:00 +18°C° 0 mm 4 m/s 761 mmHg 63%
11:00 +19°C° 0 mm 4 m/s 761 mmHg 59%
12:00 +19°C° 0.1 mm 4 m/s 761 mmHg 58%
13:00 +20°C° 0.1 mm 4 m/s 761 mmHg 57%
14:00 +20°C° 0.1 mm 5 m/s 761 mmHg 56%
15:00 +19°C° 0.1 mm 5 m/s 761 mmHg 58%
16:00 +19°C° 0.1 mm 5 m/s 761 mmHg 59%
17:00 +19°C° 0.1 mm 5 m/s 761 mmHg 60%
18:00 +17°C° 0 mm 4 m/s 761 mmHg 65%
19:00 +16°C° 0 mm 3 m/s 761 mmHg 70%
20:00 +13°C° 0 mm 3 m/s 762 mmHg 75%
21:00 +12°C° 0 mm 3 m/s 762 mmHg 78%
22:00 +12°C° 0 mm 2 m/s 762 mmHg 81%
23:00 +12°C° 0 mm 2 m/s 762 mmHg 84%

Amanhã, 12 Agosto, Quarta-feira

Tempo Temperatura Precipitação Vento Pressão Humidade
00:00 +10°C° 0 mm 2 m/s 762 mmHg 85%
01:00 +10°C° 0 mm 2 m/s 762 mmHg 87%
02:00 +9°C° 0 mm 2 m/s 762 mmHg 89%
03:00 +9°C° 0 mm 2 m/s 762 mmHg 89%
04:00 +9°C° 0 mm 2 m/s 762 mmHg 90%
05:00 +9°C° 0 mm 2 m/s 763 mmHg 90%
06:00 +11°C° 0 mm 3 m/s 763 mmHg 81%
07:00 +13°C° 0 mm 3 m/s 763 mmHg 71%
08:00 +14°C° 0 mm 4 m/s 762 mmHg 62%
09:00 +15°C° 0 mm 4 m/s 762 mmHg 58%
10:00 +17°C° 0 mm 3 m/s 762 mmHg 53%
11:00 +18°C° 0 mm 3 m/s 762 mmHg 49%
12:00 +18°C° 0 mm 3 m/s 762 mmHg 50%
13:00 +18°C° 0 mm 3 m/s 762 mmHg 51%
14:00 +18°C° 0 mm 3 m/s 762 mmHg 52%
15:00 +18°C° 0 mm 3 m/s 762 mmHg 54%
16:00 +18°C° 0 mm 3 m/s 762 mmHg 55%
17:00 +18°C° 0 mm 2 m/s 762 mmHg 57%
18:00 +17°C° 0 mm 2 m/s 761 mmHg 62%
19:00 +16°C° 0 mm 2 m/s 761 mmHg 67%
20:00 +15°C° 0 mm 2 m/s 761 mmHg 73%
21:00 +14°C° 0 mm 1 m/s 761 mmHg 76%
22:00 +13°C° 0 mm 1 m/s 761 mmHg 79%
23:00 +12°C° 0 mm 1 m/s 761 mmHg 82%

Depois de amanhã, 13 Agosto, Quinta-feira

Tempo Temperatura Precipitação Vento Pressão Humidade
00:00 +12°C° 0 mm 1 m/s 761 mmHg 83%
01:00 +11°C° 0 mm 1 m/s 761 mmHg 84%
02:00 +11°C° 0 mm 1 m/s 761 mmHg 85%
03:00 +12°C° 0 mm 1 m/s 761 mmHg 83%
04:00 +12°C° 0 mm 1 m/s 761 mmHg 81%
05:00 +13°C° 0 mm 1 m/s 760 mmHg 79%
06:00 +13°C° 0 mm 1 m/s 760 mmHg 77%
07:00 +13°C° 0 mm 0 m/s 760 mmHg 74%
08:00 +14°C° 0 mm 0 m/s 760 mmHg 72%
09:00 +15°C° 0 mm 0 m/s 760 mmHg 69%
10:00 +16°C° 0 mm 0 m/s 760 mmHg 65%
11:00 +18°C° 0 mm 1 m/s 760 mmHg 62%
12:00 +19°C° 0 mm 1 m/s 760 mmHg 62%
13:00 +19°C° 0 mm 1 m/s 760 mmHg 63%
14:00 +18°C° 0 mm 2 m/s 759 mmHg 63%
15:00 +18°C° 0 mm 2 m/s 759 mmHg 65%
16:00 +18°C° 0 mm 2 m/s 759 mmHg 66%
17:00 +18°C° 0 mm 2 m/s 759 mmHg 68%
18:00 +18°C° 0 mm 1 m/s 759 mmHg 76%
19:00 +16°C° 0 mm 1 m/s 759 mmHg 83%
20:00 +14°C° 0 mm 1 m/s 759 mmHg 91%
21:00 +14°C° 0.1 mm 1 m/s 759 mmHg 91%
22:00 +14°C° 0.1 mm 1 m/s 759 mmHg 91%
23:00 +14°C° 0.1 mm 1 m/s 759 mmHg 91%

14 Agosto, Sexta-feira

Tempo Temperatura Precipitação Vento Pressão Humidade
00:00 +14°C° 0.1 mm 1 m/s 759 mmHg 92%
01:00 +14°C° 0.1 mm 2 m/s 759 mmHg 93%
02:00 +14°C° 0.1 mm 2 m/s 759 mmHg 94%
03:00 +14°C° 0 mm 2 m/s 759 mmHg 94%
04:00 +14°C° 0 mm 2 m/s 758 mmHg 95%
05:00 +13°C° 0 mm 2 m/s 758 mmHg 95%
06:00 +14°C° 0 mm 2 m/s 758 mmHg 92%
07:00 +16°C° 0 mm 1 m/s 758 mmHg 90%
08:00 +18°C° 0 mm 1 m/s 758 mmHg 87%
09:00 +19°C° 0.1 mm 1 m/s 758 mmHg 83%
10:00 +20°C° 0.1 mm 1 m/s 758 mmHg 78%
11:00 +21°C° 0.1 mm 1 m/s 758 mmHg 74%
12:00 +22°C° 0.3 mm 1 m/s 757 mmHg 71%
13:00 +23°C° 0.3 mm 1 m/s 757 mmHg 68%
14:00 +23°C° 0.3 mm 2 m/s 757 mmHg 65%
15:00 +23°C° 0.3 mm 2 m/s 757 mmHg 68%
16:00 +23°C° 0.3 mm 2 m/s 756 mmHg 70%
17:00 +22°C° 0.3 mm 3 m/s 756 mmHg 73%
18:00 +20°C° 0.3 mm 2 m/s 756 mmHg 79%
19:00 +19°C° 0.3 mm 2 m/s 756 mmHg 85%
20:00 +17°C° 0.3 mm 2 m/s 756 mmHg 92%
21:00 +17°C° 0.1 mm 2 m/s 756 mmHg 92%
22:00 +16°C° 0.1 mm 2 m/s 756 mmHg 93%
23:00 +16°C° 0.1 mm 2 m/s 756 mmHg 94%

15 Agosto, Sábado

Tempo Temperatura Precipitação Vento Pressão Humidade
00:00 +16°C° 0.6 mm 2 m/s 756 mmHg 94%
01:00 +16°C° 0.6 mm 2 m/s 756 mmHg 94%
02:00 +15°C° 0.6 mm 2 m/s 756 mmHg 94%
03:00 +15°C° 0.1 mm 2 m/s 756 mmHg 94%
04:00 +15°C° 0.1 mm 2 m/s 756 mmHg 94%
05:00 +14°C° 0.1 mm 2 m/s 756 mmHg 95%
06:00 +16°C° 0 mm 2 m/s 755 mmHg 92%
07:00 +17°C° 0 mm 3 m/s 755 mmHg 89%
08:00 +18°C° 0 mm 3 m/s 755 mmHg 86%
09:00 +19°C° 0 mm 3 m/s 755 mmHg 79%
10:00 +21°C° 0 mm 3 m/s 755 mmHg 71%
11:00 +22°C° 0 mm 3 m/s 755 mmHg 64%
12:00 +22°C° 1 mm 3 m/s 755 mmHg 68%
13:00 +22°C° 1 mm 3 m/s 755 mmHg 72%
14:00 +22°C° 1 mm 4 m/s 755 mmHg 76%
15:00 +22°C° 0.7 mm 3 m/s 755 mmHg 75%
16:00 +22°C° 0.7 mm 3 m/s 755 mmHg 74%
17:00 +22°C° 0.7 mm 3 m/s 755 mmHg 72%
18:00 +21°C° 0.1 mm 2 m/s 755 mmHg 78%
19:00 +19°C° 0.1 mm 2 m/s 755 mmHg 84%
20:00 +17°C° 0.1 mm 2 m/s 756 mmHg 90%
21:00 +17°C° 0 mm 2 m/s 756 mmHg 92%
22:00 +16°C° 0 mm 2 m/s 756 mmHg 94%
23:00 +15°C° 0 mm 2 m/s 756 mmHg 96%

16 Agosto, Domingo

Tempo Temperatura Precipitação Vento Pressão Humidade
00:00 +15°C° 0 mm 2 m/s 757 mmHg 96%
01:00 +14°C° 0 mm 2 m/s 757 mmHg 96%
02:00 +14°C° 0 mm 2 m/s 757 mmHg 97%
03:00 +14°C° 0 mm 2 m/s 758 mmHg 97%
04:00 +13°C° 0 mm 2 m/s 758 mmHg 97%
05:00 +13°C° 0 mm 2 m/s 758 mmHg 98%
06:00 +14°C° 0 mm 2 m/s 758 mmHg 94%
07:00 +14°C° 0 mm 3 m/s 758 mmHg 91%
08:00 +17°C° 0 mm 3 m/s 759 mmHg 88%
09:00 +18°C° 0 mm 3 m/s 759 mmHg 80%
10:00 +19°C° 0 mm 3 m/s 759 mmHg 72%
11:00 +21°C° 0 mm 3 m/s 760 mmHg 64%
12:00 +22°C° 0 mm 3 m/s 760 mmHg 59%
13:00 +24°C° 0 mm 3 m/s 760 mmHg 54%
14:00 +24°C° 0 mm 3 m/s 760 mmHg 49%
15:00 +24°C° 0 mm 3 m/s 760 mmHg 50%
16:00 +24°C° 0 mm 3 m/s 760 mmHg 51%
17:00 +22°C° 0 mm 3 m/s 760 mmHg 52%
18:00 +20°C° 0 mm 3 m/s 760 mmHg 59%
19:00 +18°C° 0 mm 3 m/s 760 mmHg 65%
20:00 +16°C° 0 mm 3 m/s 760 mmHg 72%
21:00 +14°C° 0 mm 3 m/s 761 mmHg 74%
22:00 +14°C° 0 mm 2 m/s 761 mmHg 77%
23:00 +13°C° 0 mm 2 m/s 761 mmHg 79%
Mostrar mais